Miscellaneous Local Product
Issued by NWS Hastings, NE

Home | Current Version | Previous Version | Text Only | Print | Product List | Glossary On
Versions: 1 2 3 4 5 6 7 8 9 10 11 12 13 14 15 16 17 18 19 20 21 22 23 24 25 26 27 28 29 30 31 32 33 34 35 36 37 38 39 40 41 42 43 44 45 46 47 48 49 50
489
AXUS43 KGID 011802
MISGRI

GID CWA HOURLY WEATHER ROUNDUP
NATIONAL WEATHER SERVICE HASTINGS NE
100 PM CDT SAT OCT 01 2016

NOTE: "FAIR" INDICATES FEW OR NO CLOUDS BELOW 12,000 FEET WITH NO
SIGNIFICANT WEATHER AND/OR OBSTRUCTIONS TO VISIBILITY.

...SOUTH CENTRAL NEBRASKA...

CITY           SKY/WX    TMP DP  RH WIND       PRES   REMARKS
GRAND ISLAND   MOSUNNY   68  49  50 SE8       30.12F
HASTINGS       CLOUDY    71  46  40 SE8       30.12F
KEARNEY        SUNNY     73  46  38 SE10G16   30.10F
ORD            SUNNY     69  46  43 SE10      30.09F
YORK           MOSUNNY   66  48  52 CALM      30.12F
AURORA         MOSUNNY   66  51  56 S5        30.12F
LEXINGTON      SUNNY     73  46  38 SW9       30.10F
HOLDREGE       SUNNY     71  44  38 SE9G17    30.10F
HEBRON         PTSUNNY   70  49  46 SE3       30.12F

...NEBRASKA PANHANDLE...

CITY           SKY/WX    TMP DP  RH WIND       PRES   REMARKS
CHADRON        SUNNY     75  47  36 VRB3      30.00F
ALLIANCE       SUNNY     75  48  38 S9        30.04F
SCOTTSBLUFF    SUNNY     72  48  42 NW5       30.05F
SIDNEY         SUNNY     76  46  34 S13       30.08F

...WESTERN AND NORTH CENTRAL NEBRASKA...

CITY           SKY/WX    TMP DP  RH WIND       PRES   REMARKS
VALENTINE      CLOUDY    71  48  43 S13       30.03F
AINSWORTH      SUNNY     75  51  44 S15       30.05F
ONEILL         MOSUNNY   71  44  37 SE13      30.10F
BROKEN BOW     SUNNY     71  47  42 S12       30.09F
IMPERIAL       SUNNY     72  48  42 S16       30.09F
NORTH PLATTE   SUNNY     72  49  44 S14       30.08F
MCCOOK         SUNNY     72  49  44 S9        30.09F

...EASTERN NEBRASKA...

CITY           SKY/WX    TMP DP  RH WIND       PRES   REMARKS
NORFOLK        SUNNY     69  50  50 VRB5      30.11F
SO SIOUX CITY  CLOUDY    65  58  78 SE5       30.13F
TEKAMAH        CLOUDY    65  55  70 NE6       30.12F
COLUMBUS       PTSUNNY   70  48  46 SE6       30.12F
ALBION         SUNNY     69  50  51 SE7       30.11F
OMAHA EPPLEY   CLOUDY    65  55  70 N5        30.12F
OFFUTT AFB     CLOUDY    64  57  78 N5        30.11F
MILLARD        CLOUDY    65  56  72 CALM      30.12F
LINCOLN        MOSUNNY   70  54  56 E8        30.13F
NEBRASKA CITY  CLOUDY    63  53  70 CALM      30.13F
BEATRICE       MOSUNNY   68  54  61 E3        30.12F
FALLS CITY     CLOUDY    64  56  75 NW5       30.12F

...NORTHERN KANSAS...

CITY           SKY/WX    TMP DP  RH WIND       PRES   REMARKS
GOODLAND       SUNNY     71  49  45 SE10      30.09F
HILL CITY      CLOUDY    72  50  45 SE9       30.10F
NORTON         CLEAR     73  43  33 SE12      30.10S
PHILLIPSBURG   SUNNY     73  48  40 E9        30.10F
SMITH CENTER   SUNNY     72  46  40 SE8       30.11F
BELOIT         SUNNY     73  48  40 E5        30.10F
HAYS           CLOUDY    73  46  38 SE9       30.09F
RUSSELL        SUNNY     73  47  39 SE9       30.09F
CONCORDIA      SUNNY     72  48  42 NE3       30.11F
SALINA         SUNNY     75  49  39 VRB6      30.11F
TOPEKA         CLOUDY    71  57  61 VRB6      30.12F



USA.gov is the U.S. government's official web portal to all federal, state and local government web resources and services.